User: anonymous   Login
Location: Memmingen
(47.9830°N, 10.1733°E)
Time: 22:22:45
(UTC+01:00)
Language:

ISS - Orbit

View from above orbital plane
View from above orbital plane
View from above satellite
View from above satellite

Ground track
Ground track

The orbit data is extracted from the following two-line orbital elements,

1 25544U 98067A   18056.50945749  .00016717  00000-0  10270-3 0  9022
2 25544  51.6372 215.4558 0003149 134.4837 225.6573 15.54146916 21143
Epoch (UTC): 25 February 2018 12:13:37
Eccentricity: 0.0003149
inclination: 51.6372°
perigee height: 402 km
apogee height: 407 km
right ascension of ascending node: 215.4558°
argument of perigee: 134.4837°
revolutions per day: 15.54146916
mean anomaly at epoch: 225.6573°
orbit number at epoch: 2114

The dashed part of the orbit path shows where the satellite is in the earth's shadow,  

DLR